When you browse on this site, cookies collect data to enhance your experience and personalize the content and advertising you see.
Visit our Privacy Policy to learn more. By continuing to use the site, you agree to this use of cookies and data.
  • In Austria
  • List of Countries
  • For 7 days
  • Water Temperature
  • Weather Map
  • News
  • Weather Widgets
  • user-avatar
    Login

    Hourly Weather Padilla

    Today, 20 November, Wednesday

    Time Temperature Precipitation Wind Pressure Humidity
    00:00 +20°C° 0.5 mm 0 mps 676 mmHg 95%
    01:00 +20°C° 0.5 mm 0 mps 676 mmHg 96%
    02:00 +20°C° 0.7 mm 0 mps 675 mmHg 96%
    03:00 +20°C° 0.7 mm 0 mps 675 mmHg 96%
    04:00 +20°C° 0.7 mm 0 mps 675 mmHg 97%
    05:00 +20°C° 2 mm 0 mps 676 mmHg 97%
    06:00 +20°C° 2 mm 0 mps 676 mmHg 97%
    07:00 +20°C° 2 mm 0 mps 676 mmHg 97%
    08:00 +20°C° 0.6 mm 0 mps 677 mmHg 95%
    09:00 +21°C° 0.6 mm 0 mps 677 mmHg 93%
    10:00 +24°C° 0.6 mm 1 mps 678 mmHg 91%
    11:00 +25°C° 0.2 mm 1 mps 677 mmHg 88%
    12:00 +26°C° 0.2 mm 1 mps 676 mmHg 84%
    13:00 +26°C° 0.2 mm 1 mps 676 mmHg 81%
    14:00 +26°C° 0.4 mm 1 mps 675 mmHg 80%
    15:00 +26°C° 0.4 mm 1 mps 675 mmHg 79%
    16:00 +24°C° 0.4 mm 0 mps 675 mmHg 79%
    17:00 +23°C° 1 mm 0 mps 675 mmHg 83%
    18:00 +22°C° 1 mm 0 mps 675 mmHg 87%
    19:00 +21°C° 1 mm 0 mps 675 mmHg 91%
    20:00 +20°C° 0.3 mm 0 mps 675 mmHg 92%
    21:00 +20°C° 0.3 mm 0 mps 676 mmHg 92%
    22:00 +20°C° 0.3 mm 0 mps 676 mmHg 92%
    23:00 +19°C° 0 mm 0 mps 676 mmHg 92%

    Tomorrow, 21 November, Thursday

    Time Temperature Precipitation Wind Pressure Humidity
    00:00 +19°C° 0 mm 0 mps 676 mmHg 91%
    01:00 +19°C° 0 mm 0 mps 675 mmHg 91%
    02:00 +19°C° 0 mm 0 mps 675 mmHg 91%
    03:00 +18°C° 0 mm 0 mps 675 mmHg 91%
    04:00 +18°C° 0 mm 0 mps 675 mmHg 91%
    05:00 +19°C° 0 mm 0 mps 675 mmHg 90%
    06:00 +19°C° 0 mm 0 mps 676 mmHg 89%
    07:00 +20°C° 0 mm 0 mps 676 mmHg 88%
    08:00 +24°C° 0.1 mm 1 mps 677 mmHg 83%
    09:00 +25°C° 0.1 mm 1 mps 677 mmHg 78%
    10:00 +27°C° 0.1 mm 1 mps 678 mmHg 74%
    11:00 +28°C° 0.7 mm 1 mps 677 mmHg 72%
    12:00 +28°C° 0.7 mm 1 mps 676 mmHg 71%
    13:00 +29°C° 0.7 mm 1 mps 676 mmHg 69%
    14:00 +26°C° 1.3 mm 0 mps 675 mmHg 74%
    15:00 +25°C° 1.3 mm 0 mps 674 mmHg 80%
    16:00 +24°C° 1.3 mm 0 mps 674 mmHg 85%
    17:00 +23°C° 1.5 mm 0 mps 674 mmHg 87%
    18:00 +21°C° 1.5 mm 0 mps 674 mmHg 89%
    19:00 +20°C° 1.5 mm 0 mps 674 mmHg 92%
    20:00 +20°C° 0.8 mm 0 mps 675 mmHg 92%
    21:00 +20°C° 0.8 mm 0 mps 675 mmHg 92%
    22:00 +20°C° 0.8 mm 0 mps 676 mmHg 92%
    23:00 +19°C° 0.4 mm 0 mps 675 mmHg 92%

    Day after tomorrow, 22 November, Friday

    Time Temperature Precipitation Wind Pressure Humidity
    00:00 +19°C° 0.4 mm 0 mps 675 mmHg 92%
    01:00 +19°C° 0.4 mm 0 mps 675 mmHg 92%
    02:00 +19°C° 0.4 mm 0 mps 674 mmHg 92%
    03:00 +19°C° 0.4 mm 0 mps 674 mmHg 92%
    04:00 +19°C° 0.4 mm 0 mps 674 mmHg 91%
    05:00 +19°C° 0.2 mm 0 mps 675 mmHg 91%
    06:00 +19°C° 0.2 mm 0 mps 675 mmHg 90%
    07:00 +20°C° 0.2 mm 0 mps 676 mmHg 89%
    08:00 +21°C° 0.1 mm 0 mps 676 mmHg 87%
    09:00 +24°C° 0.1 mm 1 mps 677 mmHg 84%
    10:00 +25°C° 0.1 mm 1 mps 677 mmHg 82%
    11:00 +25°C° 0.9 mm 1 mps 677 mmHg 83%
    12:00 +25°C° 0.9 mm 1 mps 676 mmHg 83%
    13:00 +25°C° 0.9 mm 1 mps 675 mmHg 84%
    14:00 +25°C° 1.6 mm 1 mps 675 mmHg 87%
    15:00 +24°C° 1.6 mm 1 mps 674 mmHg 90%
    16:00 +23°C° 1.6 mm 1 mps 674 mmHg 92%
    17:00 +22°C° 1.3 mm 1 mps 674 mmHg 93%
    18:00 +22°C° 1.3 mm 1 mps 674 mmHg 94%
    19:00 +21°C° 1.3 mm 1 mps 675 mmHg 95%
    20:00 +19°C° 0.3 mm 0 mps 675 mmHg 95%
    21:00 +19°C° 0.3 mm 0 mps 676 mmHg 95%
    22:00 +19°C° 0.3 mm 0 mps 676 mmHg 95%
    23:00 +19°C° 0.2 mm 0 mps 676 mmHg 95%

    23 November, Saturday

    Time Temperature Precipitation Wind Pressure Humidity
    00:00 +19°C° 0.2 mm 0 mps 675 mmHg 95%
    01:00 +19°C° 0.2 mm 0 mps 675 mmHg 95%
    02:00 +19°C° 0.1 mm 0 mps 675 mmHg 95%
    03:00 +19°C° 0.1 mm 0 mps 675 mmHg 95%
    04:00 +19°C° 0.1 mm 0 mps 674 mmHg 95%
    05:00 +19°C° 0 mm 0 mps 675 mmHg 94%
    06:00 +19°C° 0 mm 0 mps 675 mmHg 93%
    07:00 +19°C° 0 mm 0 mps 676 mmHg 92%
    08:00 +21°C° 0.1 mm 0 mps 676 mmHg 88%
    09:00 +24°C° 0.1 mm 1 mps 677 mmHg 83%
    10:00 +26°C° 0.1 mm 1 mps 677 mmHg 78%
    11:00 +27°C° 0.3 mm 1 mps 677 mmHg 75%
    12:00 +27°C° 0.3 mm 1 mps 676 mmHg 71%
    13:00 +26°C° 0.3 mm 0 mps 676 mmHg 68%
    14:00 +26°C° 0.5 mm 0 mps 675 mmHg 70%
    15:00 +27°C° 0.5 mm 1 mps 674 mmHg 73%
    16:00 +27°C° 0.5 mm 1 mps 674 mmHg 76%
    17:00 +25°C° 0.6 mm 1 mps 674 mmHg 81%
    18:00 +24°C° 0.6 mm 1 mps 674 mmHg 85%
    19:00 +22°C° 0.6 mm 1 mps 675 mmHg 90%
    20:00 +22°C° 0.4 mm 1 mps 675 mmHg 90%
    21:00 +20°C° 0.4 mm 0 mps 676 mmHg 89%
    22:00 +19°C° 0.4 mm 0 mps 676 mmHg 88%
    23:00 +19°C° 0.1 mm 0 mps 676 mmHg 89%

    24 November, Sunday

    Time Temperature Precipitation Wind Pressure Humidity
    00:00 +19°C° 0.1 mm 0 mps 675 mmHg 90%
    01:00 +19°C° 0.1 mm 0 mps 675 mmHg 91%
    02:00 +19°C° 0 mm 0 mps 675 mmHg 91%
    03:00 +18°C° 0 mm 0 mps 674 mmHg 90%
    04:00 +18°C° 0 mm 0 mps 674 mmHg 90%
    05:00 +19°C° 0 mm 0 mps 675 mmHg 90%
    06:00 +19°C° 0 mm 0 mps 675 mmHg 89%
    07:00 +20°C° 0 mm 0 mps 676 mmHg 88%
    08:00 +21°C° 0 mm 0 mps 676 mmHg 83%
    09:00 +25°C° 0 mm 1 mps 676 mmHg 77%
    10:00 +27°C° 0 mm 1 mps 677 mmHg 72%
    11:00 +28°C° 0.3 mm 1 mps 676 mmHg 71%
    12:00 +28°C° 0.3 mm 1 mps 675 mmHg 69%
    13:00 +29°C° 0.3 mm 1 mps 675 mmHg 68%
    14:00 +28°C° 0.6 mm 1 mps 674 mmHg 71%
    15:00 +26°C° 0.6 mm 0 mps 674 mmHg 74%
    16:00 +25°C° 0.6 mm 0 mps 673 mmHg 77%
    17:00 +24°C° 0.9 mm 0 mps 673 mmHg 82%
    18:00 +22°C° 0.9 mm 0 mps 674 mmHg 87%
    19:00 +21°C° 0.9 mm 0 mps 674 mmHg 92%
    20:00 +21°C° 0.5 mm 0 mps 674 mmHg 93%
    21:00 +20°C° 0.5 mm 0 mps 675 mmHg 94%
    22:00 +20°C° 0.5 mm 0 mps 675 mmHg 95%
    23:00 +20°C° 0.2 mm 0 mps 675 mmHg 95%

    25 November, Monday

    Time Temperature Precipitation Wind Pressure Humidity
    00:00 +20°C° 0.2 mm 0 mps 675 mmHg 95%
    01:00 +20°C° 0.2 mm 0 mps 674 mmHg 96%
    02:00 +20°C° 0.1 mm 0 mps 674 mmHg 96%
    03:00 +19°C° 0.1 mm 0 mps 674 mmHg 95%
    04:00 +19°C° 0.1 mm 0 mps 673 mmHg 95%
    05:00 +20°C° 0 mm 0 mps 674 mmHg 94%
    06:00 +20°C° 0 mm 0 mps 674 mmHg 93%
    07:00 +20°C° 0 mm 0 mps 675 mmHg 92%
    08:00 +22°C° 0 mm 0 mps 675 mmHg 87%
    09:00 +25°C° 0 mm 1 mps 675 mmHg 82%
    10:00 +27°C° 0 mm 1 mps 676 mmHg 76%
    11:00 +28°C° 0.2 mm 1 mps 675 mmHg 73%
    12:00 +29°C° 0.2 mm 1 mps 674 mmHg 70%
    13:00 +29°C° 0.2 mm 1 mps 674 mmHg 67%
    14:00 +29°C° 0.8 mm 1 mps 673 mmHg 73%
    15:00 +28°C° 0.8 mm 1 mps 672 mmHg 78%
    16:00 +25°C° 0.8 mm 0 mps 672 mmHg 83%
    17:00 +24°C° 0.8 mm 0 mps 672 mmHg 86%
    18:00 +22°C° 0.8 mm 0 mps 673 mmHg 90%
    19:00 +21°C° 0.8 mm 0 mps 673 mmHg 93%
    20:00 +21°C° 0.3 mm 0 mps 673 mmHg 93%
    21:00 +21°C° 0.3 mm 0 mps 674 mmHg 93%
    22:00 +20°C° 0.3 mm 0 mps 674 mmHg 93%
    23:00 +20°C° 0.2 mm 0 mps 674 mmHg 93%
    Show more